Regional Weather Roundup
Issued by NWS Northern Indiana

Home | Current Version | Previous Version | Graphics & Text | Print | Product List | Glossary On
Versions: 1 2 3 4 5 6 7 8 9 10 11 12 13 14 15 16 17 18 19 20 21 22 23 24 25 26 27 28 29 30 31 32 33 34 35 36 37 38 39 40 41 42 43 44 45 46 47 48 49 50
000
ASUS43 KIWX 230300
RWRIWX

KIWX WEATHER ROUNDUP
NATIONAL WEATHER SERVICE NORTHERN INDIANA
1100 PM EDT MON SEP 22 2014

NOTE: "FAIR" INDICATES FEW OR NO CLOUDS BELOW 12,000 FEET WITH NO
SIGNIFICANT WEATHER AND/OR OBSTRUCTIONS TO VISIBILITY.

* THESE STATIONS ARE NOT UNDER NWS QUALITY CONTROL. THEY ALSO MAY NOT
  REPORT WEATHER SUCH AS PRECIPITATION OR FOG.

INZ001>027-230400-
NORTHERN INDIANA

CITY           SKY/WX    TMP DP  RH WIND       PRES   REMARKS
GARY*          CLEAR     46  46 100 CALM      30.28R
VALPARAISO     CLEAR     48  44  86 CALM      30.29R
KNOX*          CLEAR     46  44  92 CALM      30.28R
SOUTH BEND     CLEAR     47  43  86 CALM      30.28S
GOSHEN         CLEAR    N/A N/A N/A CALM      30.28R
MONTICELLO*    CLEAR     51  46  84 NE5       30.27S
WARSAW*        CLEAR     46  45  93 CALM      30.29R
ANGOLA*        CLEAR     46  45  93 CALM      30.28R
FORT WAYNE     CLEAR     50  45  83 N5        30.29R
PERU/GRISSOM   CLEAR     50  49  97 NE5       30.28R

$$
INZ028>050-230400-
CENTRAL INDIANA

CITY           SKY/WX    TMP DP  RH WIND       PRES   REMARKS
LAFAYETTE      CLEAR     53  45  74 NE5       30.28R
KOKOMO*        CLEAR     52  45  76 N7        30.29R
MUNCIE*        CLEAR     49  44  83 CALM      30.28R
INDIANAPOLIS   CLEAR     54  44  69 N5        30.27R

$$
MIZ043>046-050>051-056>058-064>065-071>073-077>080-230400-
SOUTHWEST LOWER MICHIGAN

CITY           SKY/WX    TMP DP  RH WIND       PRES   REMARKS
BATTLE CREEK   CLEAR     50  44  80 SW3       30.28R
BENTON HARBOR  CLEAR     45  44  97 CALM      30.27R
COLDWATER*     CLEAR     48  47  94 CALM      30.28R
HILLSDALE*     CLEAR     45  44  99 CALM      30.27R
HOLLAND        CLEAR     51  46  83 SE3       30.27R
GRAND RAPIDS   CLEAR     49  45  86 S5        30.27R
KALAMAZOO      CLEAR     48  44  86 CALM      30.28R
STURGIS*       CLEAR     45  45 100 CALM      30.27S
THREE RIVERS*  FAIR      47  45  91 CALM      30.28R

$$
OHZ001>008-015>018-024>025-230400-
NORTHWEST OHIO

CITY           SKY/WX    TMP DP  RH WIND       PRES   REMARKS
DEFIANCE       CLEAR    N/A N/A N/A CALM      30.28R
FINDLAY        CLEAR     50  43  77 CALM      30.26R
TOLEDO EXPRESS CLEAR     47  45  93 CALM      30.26R
TOLEDO METCALF CLEAR     50  42  74 CALM      30.27R
LIMA           CLEAR     48  43  82 CALM      30.27R

$$
AND FOR LAKE MICHIGAN COASTAL AND OPEN LAKE BUOY OBSERVATIONS

STATION/POSITION TEMP    WIND        PRES    VSBY  WAVE
                 AIR SEA DIR/SP/G                  HT/PER
                 (F)     (DEG/KT/KT) (MB)    (MI)  (FT/S)
CALUMET HARBOR    57     170/  3/  5 1023.4R
SAINT JOSEPH      54      CALM  /  4 1025.4S
SOUTH LAKE BUOY   60 62  190/ 12/ 14 1024.0R         1/ 6
4 MI NW BRIDGMAN  58 65  150/  8/ 10   N/A           1/ 6
MICHIGAN CITY     58 64  160/ 10/ 12   N/A           2/ 4

$$
&&



USA.gov is the U.S. government's official web portal to all federal, state and local government web resources and services.